TimeEDT,TemperatureF,Dew PointF,Humidity,Sea Level PressureIn,VisibilityMPH,Wind Direction,Wind SpeedMPH,Gust SpeedMPH,PrecipitationIn,Events,Conditions,WindDirDegrees,DateUTC
12:15 AM,57.2,55.4,94,29.88,3.0,Calm,Calm,-,N/A,,Clear,0,2012-10-06 04:15:00
12:35 AM,55.4,53.6,94,29.88,5.0,SSW,3.5,-,N/A,,Clear,200,2012-10-06 04:35:00
12:55 AM,55.4,53.6,94,29.88,3.0,Calm,Calm,-,N/A,,Clear,0,2012-10-06 04:55:00
1:15 AM,55.4,53.6,94,29.87,5.0,South,3.5,-,N/A,,Partly Cloudy,170,2012-10-06 05:15:00
1:35 AM,57.2,55.4,94,29.87,8.0,WSW,4.6,-,N/A,,Mostly Cloudy,240,2012-10-06 05:35:00
1:55 AM,59.0,55.4,88,29.87,9.0,SSW,3.5,-,N/A,,Scattered Clouds,200,2012-10-06 05:55:00
2:15 AM,57.2,55.4,94,29.85,5.0,South,3.5,-,N/A,,Partly Cloudy,190,2012-10-06 06:15:00
2:55 AM,59.0,55.4,88,29.84,10.0,SW,3.5,-,N/A,,Scattered Clouds,220,2012-10-06 06:55:00
3:15 AM,57.2,53.6,88,29.84,7.0,South,3.5,-,N/A,,Mostly Cloudy,180,2012-10-06 07:15:00
3:35 AM,57.2,55.4,94,29.84,5.0,Calm,Calm,-,N/A,,Partly Cloudy,0,2012-10-06 07:35:00
3:55 AM,55.4,53.6,94,29.83,5.0,Calm,Calm,-,N/A,,Clear,0,2012-10-06 07:55:00
4:15 AM,55.4,53.6,94,29.83,5.0,Calm,Calm,-,N/A,,Clear,0,2012-10-06 08:15:00
4:35 AM,53.6,51.8,94,29.83,3.0,Calm,Calm,-,N/A,,Clear,0,2012-10-06 08:35:00
4:55 AM,53.6,51.8,94,29.82,3.0,Calm,Calm,-,N/A,,Clear,0,2012-10-06 08:55:00
5:35 AM,57.2,53.6,88,29.82,10.0,SW,6.9,-,N/A,,Clear,230,2012-10-06 09:35:00
5:55 AM,57.2,53.6,88,29.82,10.0,SW,5.8,-,N/A,,Clear,220,2012-10-06 09:55:00
6:15 AM,57.2,53.6,88,29.81,10.0,SSW,5.8,-,N/A,,Clear,210,2012-10-06 10:15:00
6:35 AM,57.2,53.6,88,29.81,10.0,SSW,5.8,-,N/A,,Clear,200,2012-10-06 10:35:00
6:55 AM,57.2,53.6,88,29.81,7.0,SSW,5.8,-,N/A,,Clear,200,2012-10-06 10:55:00
7:15 AM,57.2,53.6,88,29.81,7.0,SSW,4.6,-,N/A,,Clear,210,2012-10-06 11:15:00
7:55 AM,59.0,55.4,88,29.80,6.0,SSW,5.8,-,N/A,,Clear,210,2012-10-06 11:55:00
8:15 AM,60.8,55.4,82,29.80,8.0,SW,6.9,-,N/A,,Clear,220,2012-10-06 12:15:00
8:35 AM,60.8,55.4,82,29.79,8.0,SSW,5.8,-,N/A,,Clear,210,2012-10-06 12:35:00
8:55 AM,62.6,55.4,77,29.79,10.0,SSW,5.8,-,N/A,,Clear,210,2012-10-06 12:55:00
9:15 AM,64.4,57.2,77,29.79,10.0,SSW,8.1,-,N/A,,Clear,200,2012-10-06 13:15:00
9:35 AM,66.2,57.2,73,29.79,10.0,SW,8.1,-,N/A,,Clear,220,2012-10-06 13:35:00
10:15 AM,68.0,57.2,68,29.79,10.0,SSW,8.1,-,N/A,,Clear,200,2012-10-06 14:15:00
10:35 AM,69.8,59.0,68,29.78,10.0,SW,5.8,-,N/A,,Clear,220,2012-10-06 14:35:00
10:55 AM,69.8,57.2,64,29.77,10.0,SSW,6.9,-,N/A,,Clear,200,2012-10-06 14:55:00
11:15 AM,71.6,59.0,64,29.77,10.0,South,5.8,-,N/A,,Clear,190,2012-10-06 15:15:00
11:35 AM,73.4,59.0,61,29.75,10.0,SSW,8.1,-,N/A,,Clear,210,2012-10-06 15:35:00
11:55 AM,75.2,59.0,57,29.74,10.0,South,10.4,19.6,N/A,,Clear,190,2012-10-06 15:55:00
12:15 PM,73.4,57.2,57,29.73,10.0,SSW,11.5,20.7,N/A,,Clear,200,2012-10-06 16:15:00
12:35 PM,75.2,57.2,53,29.72,10.0,SSW,11.5,17.3,N/A,,Clear,210,2012-10-06 16:35:00
12:55 PM,75.2,57.2,53,29.72,10.0,SW,9.2,19.6,N/A,,Clear,220,2012-10-06 16:55:00
1:15 PM,75.2,57.2,53,29.70,10.0,South,10.4,16.1,N/A,,Clear,190,2012-10-06 17:15:00
1:35 PM,75.2,57.2,53,29.69,10.0,SSW,15.0,23.0,N/A,,Partly Cloudy,210,2012-10-06 17:35:00
2:15 PM,75.2,57.2,53,29.67,10.0,SSW,12.7,18.4,N/A,,Clear,200,2012-10-06 18:15:00
2:35 PM,75.2,59.0,57,29.67,10.0,South,6.9,-,N/A,,Clear,180,2012-10-06 18:35:00
2:55 PM,75.2,57.2,53,29.66,10.0,SSW,12.7,18.4,N/A,,Scattered Clouds,200,2012-10-06 18:55:00
3:15 PM,75.2,57.2,53,29.65,10.0,South,9.2,17.3,N/A,,Partly Cloudy,190,2012-10-06 19:15:00
3:35 PM,75.2,57.2,53,29.65,10.0,SSW,9.2,-,N/A,,Partly Cloudy,200,2012-10-06 19:35:00
3:55 PM,73.4,57.2,57,29.64,10.0,South,8.1,-,N/A,,Mostly Cloudy,190,2012-10-06 19:55:00
4:15 PM,73.4,59.0,61,29.64,10.0,South,4.6,-,N/A,,Overcast,190,2012-10-06 20:15:00
4:35 PM,71.6,60.8,69,29.66,9.0,West,13.8,20.7,0.01,,Overcast,260,2012-10-06 20:35:00
4:55 PM,64.4,60.8,88,29.68,4.0,WSW,16.1,21.9,0.16,,Overcast,240,2012-10-06 20:55:00
5:15 PM,64.4,62.6,94,29.68,5.0,SW,11.5,-,0.06,,Overcast,230,2012-10-06 21:15:00
5:35 PM,64.4,62.6,94,29.70,4.0,West,18.4,24.2,0.07,,Mostly Cloudy,280,2012-10-06 21:35:00
5:55 PM,60.8,55.4,82,29.73,10.0,WNW,10.4,24.2,0.07,,Overcast,300,2012-10-06 21:55:00
6:15 PM,59.0,55.4,88,29.74,9.0,WNW,9.2,-,N/A,,Overcast,290,2012-10-06 22:15:00
6:35 PM,57.2,51.8,82,29.75,10.0,WNW,11.5,21.9,N/A,,Overcast,300,2012-10-06 22:35:00
6:55 PM,57.2,51.8,82,29.75,10.0,WNW,8.1,-,N/A,,Overcast,300,2012-10-06 22:55:00
7:15 PM,57.2,48.2,72,29.76,10.0,WNW,10.4,20.7,N/A,,Overcast,300,2012-10-06 23:15:00
7:35 PM,57.2,48.2,72,29.77,10.0,West,10.4,-,N/A,,Overcast,280,2012-10-06 23:35:00
7:55 PM,57.2,48.2,72,29.78,10.0,WNW,11.5,17.3,N/A,,Overcast,290,2012-10-06 23:55:00
8:15 PM,55.4,46.4,72,29.79,10.0,WNW,6.9,-,N/A,,Mostly Cloudy,290,2012-10-07 00:15:00
8:35 PM,55.4,46.4,72,29.81,10.0,WSW,5.8,-,N/A,,Partly Cloudy,250,2012-10-07 00:35:00
8:55 PM,53.6,46.4,77,29.82,10.0,West,5.8,-,N/A,,Clear,260,2012-10-07 00:55:00
9:15 PM,53.6,46.4,77,29.83,10.0,West,5.8,-,N/A,,Clear,260,2012-10-07 01:15:00
9:35 PM,53.6,46.4,77,29.84,10.0,West,8.1,-,N/A,,Clear,270,2012-10-07 01:35:00
9:55 PM,53.6,44.6,72,29.85,10.0,West,8.1,-,N/A,,Clear,260,2012-10-07 01:55:00
10:15 PM,51.8,44.6,76,29.85,10.0,WSW,3.5,-,N/A,,Clear,250,2012-10-07 02:15:00
10:35 PM,51.8,44.6,76,29.86,10.0,West,4.6,-,N/A,,Clear,260,2012-10-07 02:35:00
10:55 PM,51.8,42.8,71,29.87,10.0,West,5.8,-,N/A,,Clear,260,2012-10-07 02:55:00
11:15 PM,48.2,42.8,82,29.87,10.0,WSW,4.6,-,N/A,,Clear,250,2012-10-07 03:15:00
11:35 PM,48.2,42.8,82,29.88,10.0,WSW,4.6,-,N/A,,Clear,250,2012-10-07 03:35:00
11:55 PM,46.4,39.2,76,29.89,10.0,Calm,Calm,-,N/A,,Clear,0,2012-10-07 03:55:00